Weather History for KMTH - December, 2013

Change the Weather History Date:

Thursday, December 19, 2013

  Actual Average Record
Temperature  
Mean Temperature 74 °F 71 °F  
Max Temperature 79 °F 76 °F 84 °F (1996)
Min Temperature 68 °F 66 °F 58 °F (2010)
Degree Days  
Heating Degree Days 0 1  
Month to date heating degree days 0 12  
Since 1 July heating degree days 1 13  
Cooling Degree Days 9 7  
Month to date cooling degree days 221 155  
Year to date cooling degree days 5477 4919  
Growing Degree Days 23 (Base 50)    
Moisture  
Dew Point 64 °F    
Average Humidity 73    
Maximum Humidity 87    
Minimum Humidity 58    
Precipitation  
Precipitation 0.00 in 0.08 in 0.11 in (1998)
Month to date precipitation 2.17 1.28  
Year to date precipitation 51.74 45.43  
Snow  
Snow 0.00 in - - ()
Month to date snowfall 0.0  
Since 1 July snowfall 0.0  
Snow Depth 0.00 in    
Sea Level Pressure  
Sea Level Pressure 30.16 in    
Wind  
Wind Speed 11 mph (ENE)    
Max Wind Speed 16 mph    
Max Gust Speed 23 mph    
Visibility 10 miles    
Events      
T = Trace of Precipitation, MM = Missing Value Source: NWS Daily Summary

Daily Weather History Graph

Daily Weather History Graph

Search for Another Location

Airport or City:

Trip Planner

Search our weather history database for the weather conditions in past years. The results will help you decide how hot, cold, wet, or windy it might be!

Date:

Astronomy

Dec. 19, 2013 Rise Set
Actual Time 7:03 AM EST 5:39 PM EST
Civil Twilight 6:38 AM EST 6:04 PM EST
Nautical Twilight 6:09 AM EST 6:33 PM EST
Astronomical Twilight 5:41 AM EST 7:01 PM EST
Moon 7:51 PM EST (12/19) 8:32 AM EST (12/19)
Length of Visible Light 11h 26m
Length of Day
10h 36m
Waning Gibbous, 95% of the Moon is Illuminated
Dec 19
Waning Gibbous
Dec 25
Last Quarter
Jan 1
New
Jan 7
First Quarter
Jan 15
Full

Hourly Weather History & Observations

Time (EST) Temp. Dew Point Humidity Pressure Visibility Wind Dir Wind Speed Gust Speed Precip Events Conditions
12:53 AM 68.0 °F 62.1 °F 81% 30.18 in 10.0 mi NNE 13.8 mph - N/A   Clear
1:53 AM 68.0 °F 62.1 °F 81% 30.17 in 10.0 mi NNE 10.4 mph - N/A   Clear
2:53 AM 69.1 °F 62.1 °F 78% 30.16 in 10.0 mi NE 11.5 mph - N/A   Clear
3:53 AM 68.0 °F 62.1 °F 81% 30.16 in 10.0 mi NE 11.5 mph - N/A   Clear
4:53 AM 68.0 °F 62.1 °F 81% 30.16 in 10.0 mi NNE 11.5 mph - N/A   Clear
5:53 AM 68.0 °F 62.1 °F 81% 30.17 in 10.0 mi NE 12.7 mph - N/A   Clear
6:53 AM 68.0 °F 62.1 °F 81% 30.17 in 10.0 mi NE 10.4 mph - N/A   Clear
7:53 AM 68.0 °F 63.0 °F 84% 30.18 in 10.0 mi NE 12.7 mph - N/A   Clear
8:53 AM 71.1 °F 63.0 °F 75% 30.19 in 10.0 mi NE 12.7 mph - N/A   Clear
9:53 AM 72.0 °F 63.0 °F 73% 30.21 in 10.0 mi NE 12.7 mph - N/A   Clear
10:53 AM 75.0 °F 64.9 °F 71% 30.20 in 10.0 mi ENE 12.7 mph - N/A   Mostly Cloudy
11:53 AM 78.1 °F 62.1 °F 58% 30.19 in 10.0 mi East 12.7 mph 20.7 mph N/A   Partly Cloudy
12:53 PM 78.1 °F 62.1 °F 58% 30.16 in 10.0 mi East 10.4 mph - N/A   Partly Cloudy
1:53 PM 78.1 °F 64.0 °F 62% 30.14 in 10.0 mi East 13.8 mph 20.7 mph N/A   Partly Cloudy
2:53 PM 78.1 °F 63.0 °F 60% 30.13 in 10.0 mi ENE 13.8 mph - N/A   Partly Cloudy
3:53 PM 77.0 °F 63.0 °F 62% 30.12 in 10.0 mi East 9.2 mph 19.6 mph N/A   Clear
4:53 PM 75.9 °F 64.0 °F 67% 30.12 in 10.0 mi East 10.4 mph - N/A   Partly Cloudy
5:53 PM 75.9 °F 63.0 °F 64% 30.13 in 10.0 mi East 8.1 mph - N/A   Mostly Cloudy
6:53 PM 75.9 °F 64.0 °F 67% 30.14 in 10.0 mi ENE 10.4 mph - N/A   Overcast
7:53 PM 75.0 °F 66.0 °F 73% 30.14 in 10.0 mi ENE 10.4 mph - N/A   Scattered Clouds
8:53 PM 73.9 °F 69.1 °F 85% 30.15 in 10.0 mi NE 9.2 mph - N/A   Mostly Cloudy
9:27 PM 73.9 °F 69.1 °F 85% 30.15 in 10.0 mi ENE 6.9 mph - N/A   Mostly Cloudy
9:53 PM 73.9 °F 69.1 °F 85% 30.14 in 10.0 mi ENE 9.2 mph - N/A   Scattered Clouds
10:53 PM 75.9 °F 69.1 °F 79% 30.14 in 10.0 mi East 10.4 mph - N/A   Partly Cloudy
11:53 PM 75.9 °F 70.0 °F 82% 30.12 in 10.0 mi East 10.4 mph - N/A   Scattered Clouds